Home   Weather   Albany   Past weeks

Flag for USA Past Weather in Albany, New York, USA — Yesterday and Last 2 Weeks

Now
37 °F

Mostly cloudy.


Feels Like: 29 °F
Forecast: 34 / 41 °F
Wind: 12 mph from Northwest

Location: Albany County Airport

Current Time: Dec 3, 2016 at 2:12:37 am

Latest Report: Dec 3, 2016 at 1:51 am


Visibility: 10 mi

Pressure: 29.87 "Hg

Humidity: 73%

Dew Point: 29 °F

Location of AlbanyLocation

Past Weather in Albany — Graph

°F

Albany Temperature Yesterday

Maximum temperature yesterday: 49 °F (at 11:51 am)
Minimum temperature yesterday: 37 °F (at 1:51 am)
Average temperature yesterday: 42 °F

High & Low Weather Summary for the Past Weeks

 TemperatureHumidityPressure
High64 °F (Nov 19, 2:51 pm)97% (Nov 18, 1:51 am)30.35 "Hg (Nov 18, 1:51 am)
Low23 °F (Nov 28, 4:51 am)40% (Nov 19, 2:51 pm)29.36 "Hg (Nov 20, 1:51 pm)
Average39 °F76%29.95 "Hg
* Reported Nov 18 12:51 am — Dec 3 12:51 am, Albany, Weather by CustomWeather, © 2016

Note: Actual official high and low records may vary slightly from our data, if they occured in-between our weather recording intervals... More about our weather records

Advertising

Albany Weather History for the Previous 24 Hours

Scroll right to see more
 ConditionsComfort  
Time TempWeatherWind HumidityBarometerVisibility
12:51 am
Sat, Dec 3
37 °FPassing clouds.14 mph73%29.85 "Hg10 mi
11:51 pm
Fri, Dec 2
37 °FPartly cloudy.15 mph76%29.85 "Hg10 mi
10:51 pm38 °FMostly cloudy.12 mph73%29.85 "Hg10 mi
9:51 pm39 °FLight rain. Mostly cloudy.18 mph73%29.83 "Hg10 mi
8:51 pm42 °FDrizzle. Mostly cloudy.16 mph57%29.82 "Hg10 mi
7:51 pm42 °FPassing clouds.9 mph60%29.82 "Hg10 mi
6:51 pm42 °FPartly cloudy.10 mph60%29.82 "Hg10 mi
5:51 pm43 °FPartly cloudy.9 mph58%29.81 "Hg10 mi
4:51 pm44 °FPassing clouds.9 mph58%29.81 "Hg10 mi
3:51 pm45 °FPartly sunny.14 mph53%29.80 "Hg10 mi
2:51 pm46 °FBroken clouds.16 mph48%29.80 "Hg10 mi
1:51 pm47 °FBroken clouds.12 mph46%29.79 "Hg10 mi
12:51 pm47 °FBroken clouds.18 mph48%29.79 "Hg10 mi
11:51 am49 °FBroken clouds.14 mph50%29.80 "Hg10 mi
10:51 am46 °FBroken clouds.17 mph58%29.81 "Hg10 mi
9:51 am45 °FPartly sunny.8 mph60%29.82 "Hg10 mi
8:51 am45 °FMostly cloudy.8 mph60%29.81 "Hg10 mi
7:51 am41 °FPartly sunny.7 mph67%29.81 "Hg10 mi
6:51 am40 °FPassing clouds.6 mph70%29.80 "Hg10 mi
5:51 am38 °FPassing clouds.6 mph73%29.79 "Hg10 mi
4:51 am40 °FPassing clouds.9 mph68%29.78 "Hg10 mi
3:51 am39 °FOvercast.3 mph70%29.78 "Hg10 mi
2:51 am38 °FPassing clouds.10 mph70%29.78 "Hg10 mi
Weather by CustomWeather, © 2016

See weather overviewHow to use our weather pages